Time,TemperatureF,DewpointF,PressureIn,WindDirection,WindDirectionDegrees,WindSpeedMPH,WindSpeedGustMPH,Humidity,HourlyPrecipIn,Conditions,Clouds,dailyrainin,SoftwareType,DateUTC
2013-07-28 00:08:00,64.8,60.0,29.85,SSW,204,0.0,-999.0,85,-99.99,,,0.00,weatherlink.com 1.10,2013-07-28 07:08:00,
2013-07-28 00:23:00,64.8,60.0,29.85,SSW,196,0.0,-999.0,85,-99.99,,,0.00,weatherlink.com 1.10,2013-07-28 07:23:00,
2013-07-28 00:38:00,65.0,61.0,29.85,South,189,2.0,-999.0,86,-99.99,,,0.00,weatherlink.com 1.10,2013-07-28 07:38:00,
2013-07-28 00:53:00,64.8,61.0,29.85,SSW,211,1.0,-999.0,86,-99.99,,,0.00,weatherlink.com 1.10,2013-07-28 07:53:00,
2013-07-28 01:08:00,64.7,61.0,29.84,SSW,211,2.0,-999.0,87,-99.99,,,0.00,weatherlink.com 1.10,2013-07-28 08:08:00,
2013-07-28 01:23:00,64.7,61.0,29.84,SSW,211,1.0,-999.0,87,-99.99,,,0.00,weatherlink.com 1.10,2013-07-28 08:23:00,
2013-07-28 01:38:00,64.6,61.0,29.83,SSW,211,0.0,-999.0,87,-99.99,,,0.00,weatherlink.com 1.10,2013-07-28 08:38:00,
2013-07-28 01:53:00,64.5,61.0,29.83,SSW,211,2.0,-999.0,87,-99.99,,,0.00,weatherlink.com 1.10,2013-07-28 08:53:00,
2013-07-28 02:08:00,64.5,61.0,29.83,SSW,211,0.0,-999.0,87,-99.99,,,0.00,weatherlink.com 1.10,2013-07-28 09:08:00,
2013-07-28 02:23:00,64.6,61.0,29.83,SSW,211,1.0,-999.0,87,-99.99,,,0.00,weatherlink.com 1.10,2013-07-28 09:23:00,
2013-07-28 02:38:00,64.5,61.0,29.83,SSW,211,0.0,-999.0,87,-99.99,,,0.00,weatherlink.com 1.10,2013-07-28 09:38:00,
2013-07-28 02:53:00,64.5,61.0,29.82,SSE,148,0.0,-999.0,87,-99.99,,,0.00,weatherlink.com 1.10,2013-07-28 09:53:00,
2013-07-28 03:08:00,64.2,60.0,29.82,South,187,0.0,-999.0,87,-99.99,,,0.00,weatherlink.com 1.10,2013-07-28 10:08:00,
2013-07-28 03:23:00,64.0,60.0,29.82,South,171,0.0,-999.0,88,-99.99,,,0.00,weatherlink.com 1.10,2013-07-28 10:23:00,
2013-07-28 03:38:00,63.8,60.0,29.82,SSE,164,2.0,-999.0,88,-99.99,,,0.00,weatherlink.com 1.10,2013-07-28 10:38:00,
2013-07-28 03:53:00,63.8,60.0,29.82,SSE,165,0.0,-999.0,88,-99.99,,,0.00,weatherlink.com 1.10,2013-07-28 10:53:00,
2013-07-28 04:08:00,63.6,60.0,29.82,SSE,161,1.0,-999.0,88,-99.99,,,0.00,weatherlink.com 1.10,2013-07-28 11:08:00,
2013-07-28 04:23:00,63.6,60.0,29.82,South,179,1.0,-999.0,89,-99.99,,,0.00,weatherlink.com 1.10,2013-07-28 11:23:00,
2013-07-28 04:38:00,63.4,60.0,29.82,SSW,209,1.0,-999.0,89,-99.99,,,0.00,weatherlink.com 1.10,2013-07-28 11:38:00,
2013-07-28 04:53:00,63.3,60.0,29.82,South,178,0.0,-999.0,90,-99.99,,,0.00,weatherlink.com 1.10,2013-07-28 11:53:00,
2013-07-28 05:08:00,63.4,61.0,29.82,West,264,1.0,-999.0,90,-99.99,,,0.00,weatherlink.com 1.10,2013-07-28 12:08:00,
2013-07-28 05:24:00,63.0,60.0,29.82,SSW,213,2.0,-999.0,90,-99.99,,,0.00,weatherlink.com 1.10,2013-07-28 12:24:00,
2013-07-28 05:39:00,62.8,60.0,29.83,SSW,213,2.0,-999.0,91,-99.99,,,0.00,weatherlink.com 1.10,2013-07-28 12:39:00,
2013-07-28 05:54:00,62.5,60.0,29.83,SSW,213,0.0,-999.0,91,-99.99,,,0.00,weatherlink.com 1.10,2013-07-28 12:54:00,
2013-07-28 06:09:00,62.5,60.0,29.83,SSW,213,1.0,-999.0,91,-99.99,,,0.00,weatherlink.com 1.10,2013-07-28 13:09:00,
2013-07-28 06:24:00,62.6,60.0,29.84,SSW,213,0.0,-999.0,91,-99.99,,,0.00,weatherlink.com 1.10,2013-07-28 13:24:00,
2013-07-28 06:39:00,62.5,60.0,29.84,SSW,213,1.0,-999.0,91,-99.99,,,0.00,weatherlink.com 1.10,2013-07-28 13:39:00,
2013-07-28 06:54:00,62.5,60.0,29.84,SSW,213,0.0,-999.0,91,-99.99,,,0.00,weatherlink.com 1.10,2013-07-28 13:54:00,
2013-07-28 07:09:00,62.5,60.0,29.84,South,178,0.0,-999.0,90,-99.99,,,0.00,weatherlink.com 1.10,2013-07-28 14:09:00,
2013-07-28 07:24:00,62.7,60.0,29.85,SW,225,0.0,-999.0,90,-99.99,,,0.00,weatherlink.com 1.10,2013-07-28 14:24:00,
2013-07-28 07:39:00,63.0,60.0,29.85,SW,225,0.0,-999.0,90,-99.99,,,0.00,weatherlink.com 1.10,2013-07-28 14:39:00,
2013-07-28 07:54:00,63.6,60.0,29.85,NNW,329,1.0,-999.0,89,-99.99,,,0.00,weatherlink.com 1.10,2013-07-28 14:54:00,
2013-07-28 08:09:00,63.9,60.0,29.86,NNW,329,0.0,-999.0,88,-99.99,,,0.00,weatherlink.com 1.10,2013-07-28 15:09:00,
2013-07-28 08:24:00,63.9,60.0,29.86,NNW,329,0.0,-999.0,87,-99.99,,,0.00,weatherlink.com 1.10,2013-07-28 15:24:00,
2013-07-28 08:39:00,64.1,60.0,29.86,NNW,329,0.0,-999.0,87,-99.99,,,0.00,weatherlink.com 1.10,2013-07-28 15:39:00,
2013-07-28 08:54:00,64.5,61.0,29.86,NNW,329,0.0,-999.0,87,-99.99,,,0.00,weatherlink.com 1.10,2013-07-28 15:54:00,
2013-07-28 09:09:00,64.7,61.0,29.86,SW,227,0.0,-999.0,86,-99.99,,,0.00,weatherlink.com 1.10,2013-07-28 16:09:00,
2013-07-28 09:24:00,65.1,61.0,29.86,SW,227,0.0,-999.0,86,-99.99,,,0.00,weatherlink.com 1.10,2013-07-28 16:24:00,
2013-07-28 09:39:00,65.5,61.0,29.86,SW,227,1.0,-999.0,85,-99.99,,,0.00,weatherlink.com 1.10,2013-07-28 16:39:00,
2013-07-28 09:54:00,65.8,61.0,29.86,SW,227,0.0,-999.0,85,-99.99,,,0.00,weatherlink.com 1.10,2013-07-28 16:54:00,
2013-07-28 10:09:00,66.3,61.0,29.86,SW,227,4.0,-999.0,84,-99.99,,,0.00,weatherlink.com 1.10,2013-07-28 17:09:00,
2013-07-28 10:24:00,67.1,62.0,29.86,SW,227,0.0,-999.0,83,-99.99,,,0.00,weatherlink.com 1.10,2013-07-28 17:24:00,
2013-07-28 10:39:00,67.5,62.0,29.86,WSW,250,0.0,-999.0,82,-99.99,,,0.00,weatherlink.com 1.10,2013-07-28 17:39:00,
2013-07-28 10:54:00,68.2,63.0,29.86,WSW,256,1.0,-999.0,82,-99.99,,,0.00,weatherlink.com 1.10,2013-07-28 17:54:00,
2013-07-28 11:09:00,68.3,62.0,29.86,SSE,155,0.0,-999.0,80,-99.99,,,0.00,weatherlink.com 1.10,2013-07-28 18:09:00,
2013-07-28 11:24:00,69.5,62.0,29.85,West,267,2.0,-999.0,78,-99.99,,,0.00,weatherlink.com 1.10,2013-07-28 18:24:00,
2013-07-28 11:39:00,70.3,63.0,29.86,South,180,2.0,-999.0,77,-99.99,,,0.00,weatherlink.com 1.10,2013-07-28 18:39:00,
2013-07-28 11:54:00,71.6,64.0,29.86,South,174,0.0,-999.0,76,-99.99,,,0.00,weatherlink.com 1.10,2013-07-28 18:54:00,
2013-07-28 12:09:00,71.6,63.0,29.85,WSW,256,5.0,-999.0,73,-99.99,,,0.00,weatherlink.com 1.10,2013-07-28 19:09:00,
2013-07-28 12:24:00,72.4,64.0,29.85,SW,218,4.0,-999.0,75,-99.99,,,0.00,weatherlink.com 1.10,2013-07-28 19:24:00,
2013-07-28 12:39:00,73.2,64.0,29.85,WNW,298,2.0,-999.0,72,-99.99,,,0.00,weatherlink.com 1.10,2013-07-28 19:39:00,
2013-07-28 12:54:00,74.4,63.0,29.84,SSW,205,3.0,-999.0,68,-99.99,,,0.00,weatherlink.com 1.10,2013-07-28 19:54:00,
2013-07-28 13:09:00,73.7,64.0,29.84,WSW,252,0.0,-999.0,71,-99.99,,,0.00,weatherlink.com 1.10,2013-07-28 20:09:00,
2013-07-28 13:24:00,73.7,63.0,29.84,SSW,202,5.0,-999.0,70,-99.99,,,0.00,weatherlink.com 1.10,2013-07-28 20:24:00,
2013-07-28 13:39:00,74.6,63.0,29.83,SSW,196,5.0,-999.0,68,-99.99,,,0.00,weatherlink.com 1.10,2013-07-28 20:39:00,
2013-07-28 13:54:00,75.1,64.0,29.83,South,175,4.0,-999.0,68,-99.99,,,0.00,weatherlink.com 1.10,2013-07-28 20:54:00,
2013-07-28 14:09:00,74.6,63.0,29.83,SSW,206,3.0,-999.0,68,-99.99,,,0.00,weatherlink.com 1.10,2013-07-28 21:09:00,
2013-07-28 14:24:00,74.4,63.0,29.83,SSE,155,5.0,-999.0,67,-99.99,,,0.00,weatherlink.com 1.10,2013-07-28 21:24:00,
2013-07-28 14:39:00,75.1,64.0,29.82,SSW,198,3.0,-999.0,69,-99.99,,,0.00,weatherlink.com 1.10,2013-07-28 21:39:00,
2013-07-28 14:54:00,74.6,64.0,29.82,WNW,302,2.0,-999.0,69,-99.99,,,0.00,weatherlink.com 1.10,2013-07-28 21:54:00,
2013-07-28 15:09:00,74.7,63.0,29.82,SSW,205,7.0,-999.0,67,-99.99,,,0.00,weatherlink.com 1.10,2013-07-28 22:09:00,
2013-07-28 15:24:00,73.7,63.0,29.82,WSW,257,4.0,-999.0,69,-99.99,,,0.00,weatherlink.com 1.10,2013-07-28 22:24:00,
2013-07-28 15:39:00,72.8,63.0,29.81,South,186,8.0,-999.0,71,-99.99,,,0.00,weatherlink.com 1.10,2013-07-28 22:39:00,
2013-07-28 15:54:00,72.6,62.0,29.82,SSW,213,5.0,-999.0,70,-99.99,,,0.00,weatherlink.com 1.10,2013-07-28 22:54:00,
2013-07-28 16:09:00,72.2,62.0,29.82,SSW,196,9.0,-999.0,71,-99.99,,,0.00,weatherlink.com 1.10,2013-07-28 23:09:00,
2013-07-28 16:24:00,72.6,63.0,29.82,South,190,5.0,-999.0,71,-99.99,,,0.00,weatherlink.com 1.10,2013-07-28 23:24:00,
2013-07-28 16:39:00,72.2,62.0,29.81,SSW,213,10.0,-999.0,71,-99.99,,,0.00,weatherlink.com 1.10,2013-07-28 23:39:00,
2013-07-28 16:54:00,72.3,62.0,29.81,SSW,207,5.0,-999.0,70,-99.99,,,0.00,weatherlink.com 1.10,2013-07-28 23:54:00,
2013-07-28 17:09:00,72.2,62.0,29.81,SSW,192,4.0,-999.0,70,-99.99,,,0.00,weatherlink.com 1.10,2013-07-29 00:09:00,
2013-07-28 17:24:00,71.7,62.0,29.82,SSW,204,3.0,-999.0,71,-99.99,,,0.00,weatherlink.com 1.10,2013-07-29 00:24:00,
2013-07-28 17:39:00,71.7,62.0,29.81,WSW,237,7.0,-999.0,71,-99.99,,,0.00,weatherlink.com 1.10,2013-07-29 00:39:00,
2013-07-28 17:54:00,71.6,62.0,29.81,SSW,209,3.0,-999.0,71,-99.99,,,0.00,weatherlink.com 1.10,2013-07-29 00:54:00,
2013-07-28 18:09:00,70.6,61.0,29.81,SSW,211,4.0,-999.0,72,-99.99,,,0.00,weatherlink.com 1.10,2013-07-29 01:09:00,
2013-07-28 18:24:00,70.0,61.0,29.81,South,173,5.0,-999.0,74,-99.99,,,0.00,weatherlink.com 1.10,2013-07-29 01:24:00,
2013-07-28 18:39:00,69.1,61.0,29.80,SE,133,3.0,-999.0,75,-99.99,,,0.00,weatherlink.com 1.10,2013-07-29 01:39:00,
2013-07-28 18:54:00,68.8,61.0,29.81,SW,224,5.0,-999.0,75,-99.99,,,0.00,weatherlink.com 1.10,2013-07-29 01:54:00,
2013-07-28 19:24:00,67.7,60.0,29.82,SSW,212,5.0,-999.0,77,-99.99,,,0.00,weatherlink.com 1.10,2013-07-29 02:24:00,
2013-07-28 19:39:00,67.1,60.0,29.82,SW,226,0.0,-999.0,78,-99.99,,,0.00,weatherlink.com 1.10,2013-07-29 02:39:00,
2013-07-28 19:54:00,66.9,60.0,29.82,SW,226,0.0,-999.0,79,-99.99,,,0.00,weatherlink.com 1.10,2013-07-29 02:54:00,
2013-07-28 20:24:00,65.9,60.0,29.82,SW,226,0.0,-999.0,80,-99.99,,,0.00,weatherlink.com 1.10,2013-07-29 03:24:00,
2013-07-28 20:39:00,65.2,59.0,29.82,SW,226,0.0,-999.0,81,-99.99,,,0.00,weatherlink.com 1.10,2013-07-29 03:39:00,
2013-07-28 20:54:00,64.8,59.0,29.82,SW,226,0.0,-999.0,82,-99.99,,,0.00,weatherlink.com 1.10,2013-07-29 03:54:00,
2013-07-28 21:09:00,64.4,59.0,29.83,SW,226,0.0,-999.0,83,-99.99,,,0.00,weatherlink.com 1.10,2013-07-29 04:09:00,
2013-07-28 21:25:00,64.1,59.0,29.84,SW,226,0.0,-999.0,83,-99.99,,,0.00,weatherlink.com 1.10,2013-07-29 04:25:00,
2013-07-28 21:40:00,64.0,59.0,29.85,NNW,348,0.0,-999.0,84,-99.99,,,0.00,weatherlink.com 1.10,2013-07-29 04:40:00,
2013-07-28 21:55:00,64.1,60.0,29.85,NNW,348,0.0,-999.0,85,-99.99,,,0.00,weatherlink.com 1.10,2013-07-29 04:55:00,
2013-07-28 22:10:00,64.2,60.0,29.86,NNW,348,0.0,-999.0,85,-99.99,,,0.00,weatherlink.com 1.10,2013-07-29 05:10:00,
2013-07-28 22:25:00,64.3,60.0,29.85,NNW,348,0.0,-999.0,85,-99.99,,,0.00,weatherlink.com 1.10,2013-07-29 05:25:00,
2013-07-28 22:40:00,64.3,59.0,29.85,NNW,348,0.0,-999.0,84,-99.99,,,0.00,weatherlink.com 1.10,2013-07-29 05:40:00,
2013-07-28 22:55:00,64.4,60.0,29.86,SSW,197,2.0,-999.0,84,-99.99,,,0.00,weatherlink.com 1.10,2013-07-29 05:55:00,
2013-07-28 23:10:00,63.9,59.0,29.86,SW,234,5.0,-999.0,85,-99.99,,,0.00,weatherlink.com 1.10,2013-07-29 06:10:00,
2013-07-28 23:25:00,63.9,59.0,29.86,SSW,212,2.0,-999.0,85,-99.99,,,0.00,weatherlink.com 1.10,2013-07-29 06:25:00,
2013-07-28 23:40:00,63.8,59.0,29.86,SSW,208,1.0,-999.0,85,-99.99,,,0.00,weatherlink.com 1.10,2013-07-29 06:40:00,
2013-07-28 23:55:00,63.9,60.0,29.86,SSW,209,0.0,-999.0,86,-99.99,,,0.00,weatherlink.com 1.10,2013-07-29 06:55:00,